This demonstration page uses our WeatherBlox Daily Observations layout. Learn more.

Left ArrowRight Arrow

Hourly Observations for December 10, 2020

Temp ( °F °C ) Dew Point ( °F °C ) Humidity (%) Winds ( mph kmh ) Pressure ( in mb ) Visibility ( mi km ) Precip ( " mm )
12:53 am 00:53 Clear 26 -3.3 23 -5 88 88 Calm 30.04 1017 8 13 0.00 0.00
1:53 am 01:53 Clear with Mist and Fog 25 -3.9 23 -5 92 92 Calm 30.05 1018 5 8 0.00 0.00
2:53 am 02:53 Clear with Mist and Fog 24 -4.4 22 -5.6 91 91 Calm 30.07 1018 5 8 0.00 0.00
3:53 am 03:53 Clear 24 -4.4 21 -6.1 88 88 Calm 30.08 1019 7 11 0.00 0.00
4:53 am 04:53 Clear with Mist and Fog 24 -4.4 22 -5.6 91 91 Calm 30.09 1019 5 8 0.00 0.00
5:53 am 05:53 Clear 22 -5.6 20 -6.7 92 92 Calm 30.09 1019 8 13 0.00 0.00
6:53 am 06:53 Clear 23 -5 20 -6.7 88 88 Calm 30.11 1020 8 13 0.00 0.00
7:53 am 07:53 Sunny with Mist and Fog 22 -5.6 20 -6.7 92 92 Calm 30.12 1020 4 6 0.00 0.00
8:53 am 08:53 Sunny with Mist and Fog 27 -2.8 25 -3.9 92 92 Calm 30.13 1020 5 8 0.00 0.00
9:53 am 09:53 Sunny with Mist and Fog 37 2.8 33 0.6 86 86 Calm 30.13 1020 5 8 0.00 0.00
10:53 am 10:53 Hazy 44 6.7 36 2.2 73 73 VRB 5 7 30.14 1021 6 10 0.00 0.00
11:53 am 11:53 Sunny 51 10.6 37 2.8 59 59 VRB 6 9 30.11 1020 8 13 0.00 0.00
12:53 pm 12:53 Sunny 55 12.8 36 2.2 49 49 VRB 6 9 30.08 1019 10 16 0.00 0.00
1:53 pm 13:53 Sunny 57 13.9 37 2.8 47 47 S 5 7 30.06 1018 10 16 0.00 0.00
2:53 pm 14:53 Sunny 59 15 37 2.8 44 44 SSE 7 11 30.04 1017 10 16 0.00 0.00
3:53 pm 15:53 Sunny 58 14.4 37 2.8 46 46 VRB 5 7 30.03 1017 10 16 0.00 0.00
4:53 pm 16:53 Sunny 56 13.3 37 2.8 49 49 Calm 30.03 1017 10 16 0.00 0.00
5:53 pm 17:53 Clear 43 6.1 34 1.1 71 71 Calm 30.04 1017 10 16 0.00 0.00
6:53 pm 18:53 Clear 39 3.9 33 0.6 79 79 E 3 6 30.04 1017 10 16 0.00 0.00
7:53 pm 19:53 Clear 39 3.9 34 1.1 82 82 E 3 6 30.05 1018 10 16 0.00 0.00
8:53 pm 20:53 Clear 38 3.3 33 0.6 83 83 E 5 7 30.04 1017 10 16 0.00 0.00
9:53 pm 21:53 Clear 39 3.9 34 1.1 82 82 E 5 7 30.01 1016 10 16 0.00 0.00
10:53 pm 22:53 Clear 41 5 35 1.7 79 79 E 5 7 30.01 1016 10 16 0.00 0.00
11:53 pm 23:53 Clear 35 1.7 32 0 89 89 Calm 30.01 1016 10 16 0.00 0.00

Powered by AerisWeather